Madisonville, KY

8:09 AM CDT on August 28, 2016 (GMT -0500)
Madisonville

Weather History for K2I0 - September, 2012

Change the Weather History Date:

Tuesday, September 4, 2012

  Actual Average (KOWB) Record (KOWB)
Temperature  
Mean Temperature 82 °F -  
Max Temperature 90 °F 84 °F 100 °F (1954)
Min Temperature 75 °F 62 °F 45 °F (1974)
Cooling Degree Days 18    
Growing Degree Days 32 (Base 50)    
Moisture  
Dew Point 76 °F    
Average Humidity 88    
Maximum Humidity 100    
Minimum Humidity 61    
Precipitation  
Precipitation 0.00 in - - ()
Sea Level Pressure  
Sea Level Pressure 29.88 in    
Wind  
Wind Speed 1 mph ()    
Max Wind Speed 7 mph    
Max Gust Speed -    
Visibility 4.8 miles    
Events Fog , Rain    
Averages and records for this station are not official NWS values.
T = Trace of Precipitation, MM = Missing Value Source: Averaged Metar Reports

Daily Weather History Graph

Daily Weather History Graph

Search for Another Location

Airport or City:

Trip Planner

Search our weather history database for the weather conditions in past years. The results will help you decide how hot, cold, wet, or windy it might be!

Date:

Astronomy

Sep. 04, 2012 Rise Set
Actual Time 6:22 AM CDT 7:13 PM CDT
Civil Twilight 5:56 AM CDT 7:39 PM CDT
Nautical Twilight 5:24 AM CDT 8:11 PM CDT
Astronomical Twilight 4:52 AM CDT 8:43 PM CDT
Moon 9:13 PM CDT (9/4) 10:22 AM CDT (9/4)
Length of Visible Light 13h 43m
Length of Day
12h 50m
Waning Gibbous, 83% of the Moon is Illuminated
Sep 4
Waning Gibbous
Sep 8
Last Quarter
Sep 15
New
Sep 22
First Quarter
Sep 29
Full

Hourly Weather History & Observations

Time (CDT) Temp. Heat Index Dew Point Humidity Pressure Visibility Wind Dir Wind Speed Gust Speed Precip Events Conditions
12:15 AM 77.0 °F - 77.0 °F 100% 29.86 in 1.5 mi Calm Calm - N/A   Mist
12:35 AM 77.2 °F - 77.2 °F 100% 29.86 in 1.0 mi NE 3.5 mph - N/A   Mist
12:55 AM 77.2 °F - 77.2 °F 100% 29.86 in 0.5 mi Calm Calm - N/A Fog Fog
1:15 AM 77.0 °F - 77.0 °F 100% 29.86 in 0.8 mi Calm Calm - N/A   Mist
1:35 AM 76.6 °F - 76.6 °F 100% 29.86 in 0.2 mi SE 3.5 mph - N/A Fog Fog
1:55 AM 76.3 °F - 76.3 °F 100% 29.86 in 1.8 mi Calm Calm - N/A   Mist
2:15 AM 75.9 °F - 75.9 °F 100% 29.86 in 0.5 mi ESE 3.5 mph - N/A Fog Fog
2:35 AM 75.7 °F - 75.7 °F 100% 29.87 in 0.8 mi Calm Calm - N/A   Mist
2:55 AM 75.7 °F - 75.7 °F 100% 29.87 in 0.2 mi Calm Calm - N/A Fog Fog
3:15 AM 75.7 °F - 75.7 °F 100% 29.87 in 0.2 mi Calm Calm - N/A Fog Fog
3:35 AM 75.6 °F - 75.6 °F 100% 29.87 in 0.2 mi Calm Calm - N/A Fog Fog
3:55 AM 75.7 °F - 75.7 °F 100% 29.87 in 0.2 mi Calm Calm - N/A Fog Fog
4:15 AM 75.6 °F - 75.6 °F 100% 29.86 in 0.5 mi Calm Calm - N/A Fog Fog
4:55 AM 75.2 °F - 75.2 °F 100% 29.87 in 2.5 mi Calm Calm - N/A   Mist
5:15 AM 75.2 °F - 75.2 °F 100% 29.86 in 0.2 mi Calm Calm - N/A Fog Fog
5:35 AM 75.4 °F - 75.4 °F 100% 29.87 in 0.5 mi Calm Calm - N/A Fog Fog
5:55 AM 75.4 °F - 75.4 °F 100% 29.86 in 0.8 mi Calm Calm - N/A   Mist
6:15 AM 75.4 °F - 75.4 °F 100% 29.87 in 0.5 mi Calm Calm - N/A Fog Fog
6:35 AM 75.2 °F - 75.2 °F 100% 29.87 in 0.2 mi Calm Calm - N/A Fog Fog
6:55 AM 75.4 °F - 75.4 °F 100% 29.88 in 0.5 mi Calm Calm - N/A Fog Fog
7:15 AM 75.4 °F - 75.4 °F 100% 29.88 in 0.2 mi NNE 3.5 mph - N/A Fog Fog
7:35 AM 75.4 °F - 75.4 °F 100% 29.90 in 0.2 mi North 5.8 mph - N/A Fog Fog
7:55 AM 75.6 °F - 75.6 °F 100% 29.89 in 1.2 mi NE 3.5 mph - N/A   Mist
8:15 AM 75.9 °F - 75.9 °F 100% 29.89 in 1.5 mi East 3.5 mph - N/A   Mist
8:35 AM 76.1 °F - 76.1 °F 100% 29.90 in 1.5 mi ENE 3.5 mph - N/A   Mist
8:55 AM 76.1 °F - 76.1 °F 100% 29.91 in 1.2 mi NE 3.5 mph - N/A   Drizzle
9:15 AM 76.1 °F - 76.1 °F 100% 29.92 in 1.5 mi NE 4.6 mph - N/A Rain Rain
9:35 AM 76.5 °F - 76.5 °F 100% 29.93 in 3.0 mi Calm Calm - N/A   Mist
9:55 AM 77.0 °F - 77.0 °F 100% 29.93 in 2.5 mi NE 4.6 mph - N/A Rain Light Rain
10:15 AM 78.4 °F - 78.1 °F 99% 29.93 in 4.0 mi NE 5.8 mph - N/A   Mist
10:35 AM 79.5 °F - 77.7 °F 94% 29.93 in 4.0 mi ENE 4.6 mph - N/A   Mist
10:55 AM 79.7 °F - 77.5 °F 93% 29.93 in 5.0 mi NNE 4.6 mph - N/A   Mist
11:15 AM 80.2 °F 86.5 °F 77.4 °F 91% 29.93 in 5.0 mi NNE 3.5 mph - N/A   Mist
11:35 AM 81.5 °F 89.0 °F 77.0 °F 86% 29.93 in 5.0 mi NE 5.8 mph - N/A   Mist
11:55 AM 83.5 °F 93.3 °F 77.4 °F 82% 29.92 in 7.0 mi North 5.8 mph - N/A   Unknown
12:15 PM 84.9 °F 95.3 °F 76.8 °F 77% 29.91 in 7.0 mi NE 6.9 mph - N/A   Unknown
12:35 PM 85.6 °F 96.8 °F 77.2 °F 76% 29.91 in 10.0 mi East 6.9 mph - N/A   Unknown
12:55 PM 85.1 °F 95.8 °F 77.0 °F 77% 29.90 in 10.0 mi Calm Calm - N/A   Unknown
1:15 PM 85.3 °F 95.0 °F 76.3 °F 74% 29.90 in 10.0 mi Calm Calm - N/A   Unknown
1:35 PM 86.9 °F 97.8 °F 76.3 °F 71% 29.89 in 10.0 mi North 4.6 mph - N/A   Unknown
1:55 PM 87.6 °F 96.2 °F 74.3 °F 64% 29.89 in 10.0 mi NE 6.9 mph - N/A   Unknown
2:15 PM 87.1 °F 97.8 °F 76.1 °F 70% 29.88 in 10.0 mi WNW 4.6 mph - N/A   Unknown
2:35 PM 88.9 °F 98.6 °F 75.0 °F 63% 29.88 in 10.0 mi North 4.6 mph - N/A   Unknown
2:55 PM 88.9 °F 98.1 °F 74.5 °F 62% 29.86 in 10.0 mi Calm Calm - N/A   Unknown
3:15 PM 88.7 °F 97.7 °F 74.1 °F 62% 29.86 in 10.0 mi Calm Calm - N/A   Unknown
3:35 PM 89.6 °F 99.3 °F 74.3 °F 61% 29.86 in 10.0 mi NE 3.5 mph - N/A   Unknown
3:55 PM 89.1 °F 98.5 °F 74.7 °F 62% 29.86 in 7.0 mi Calm Calm - N/A   Unknown
4:15 PM 90.0 °F 100.7 °F 75.4 °F 62% 29.86 in 10.0 mi SE 3.5 mph - N/A   Unknown
4:35 PM 89.4 °F 100.0 °F 75.2 °F 63% 29.85 in 10.0 mi SE 4.6 mph - N/A   Unknown
4:55 PM 88.5 °F 98.3 °F 74.8 °F 64% 29.86 in 10.0 mi Calm Calm - N/A   Unknown
5:15 PM 88.9 °F 99.7 °F 75.9 °F 65% 29.86 in 10.0 mi Calm Calm - N/A   Unknown
5:35 PM 89.6 °F 99.8 °F 74.8 °F 62% 29.86 in 10.0 mi Calm Calm - N/A   Unknown
5:55 PM 89.1 °F 101.4 °F 76.6 °F 67% 29.86 in 7.0 mi SW 3.5 mph - N/A   Unknown
6:15 PM 87.6 °F 97.6 °F 75.4 °F 67% 29.86 in 10.0 mi Calm Calm - N/A   Unknown
6:35 PM 87.1 °F 97.8 °F 76.3 °F 70% 29.85 in 10.0 mi Calm Calm - N/A   Unknown
6:55 PM 85.3 °F 95.8 °F 76.8 °F 76% 29.86 in 7.0 mi Calm Calm - N/A   Unknown
7:15 PM 84.7 °F 95.2 °F 77.2 °F 78% 29.86 in 10.0 mi Calm Calm - N/A   Unknown
7:35 PM 82.9 °F 91.5 °F 76.6 °F 81% 29.86 in 10.0 mi Calm Calm - N/A   Unknown
7:55 PM 81.1 °F 88.4 °F 77.4 °F 88% 29.86 in 7.0 mi Calm Calm - N/A   Unknown
8:15 PM 81.1 °F 88.7 °F 77.5 °F 89% 29.87 in 7.0 mi Calm Calm - N/A   Unknown
8:35 PM 80.2 °F 86.5 °F 77.4 °F 91% 29.87 in 7.0 mi Calm Calm - N/A   Unknown
8:55 PM 79.2 °F - 77.0 °F 93% 29.88 in 7.0 mi Calm Calm - N/A   Unknown
9:15 PM 79.9 °F - 77.5 °F 93% 29.87 in 7.0 mi Calm Calm - N/A   Unknown
9:35 PM 78.8 °F - 77.2 °F 95% 29.87 in 7.0 mi Calm Calm - N/A   Unknown
9:55 PM 78.4 °F - 77.2 °F 96% 29.87 in 5.0 mi Calm Calm - N/A   Mist
10:15 PM 77.5 °F - 76.8 °F 98% 29.87 in 4.0 mi Calm Calm - N/A   Mist
10:35 PM 78.1 °F - 77.7 °F 99% 29.88 in 4.0 mi Calm Calm - N/A   Mist
10:55 PM 77.2 °F - 76.6 °F 98% 29.88 in 4.0 mi Calm Calm - N/A   Mist
11:15 PM 77.0 °F - 77.0 °F 100% 29.88 in 3.0 mi Calm Calm - N/A   Mist
11:35 PM 76.3 °F - 76.3 °F 100% 29.87 in 1.2 mi Calm Calm - N/A   Mist
11:55 PM 76.3 °F - 76.3 °F 100% 29.87 in 2.5 mi Calm Calm - N/A   Mist